MST,Max TemperatureF,Mean TemperatureF,Min TemperatureF,Max Dew PointF,MeanDew PointF,Min DewpointF,Max Humidity, Mean Humidity, Min Humidity, Max Sea Level PressureIn, Mean Sea Level PressureIn, Min Sea Level PressureIn, Max VisibilityMiles, Mean VisibilityMiles, Min VisibilityMiles, Max Wind SpeedMPH, Mean Wind SpeedMPH, Max Gust SpeedMPH,PrecipitationIn, CloudCover, Events, WindDirDegrees
2012-12-1,54,34,13,19,15,8,84,54,24,30.30,30.13,30.01,10,10,10,14,5,15,0.00,0,,128
2012-12-2,57,35,13,20,13,7,80,48,15,30.32,30.11,29.92,10,10,10,21,6,28,0.00,0,,210
2012-12-3,54,36,17,29,22,12,75,52,29,30.21,30.05,29.88,10,10,10,15,7,21,T,3,,30
2012-12-4,48,29,9,21,13,6,92,58,24,30.54,30.43,30.27,10,10,7,9,2,12,0.00,0,,233
2012-12-5,52,31,9,18,12,5,76,52,27,30.50,30.27,30.07,10,10,9,8,3,9,0.00,0,,295
2012-12-6,52,30,8,30,14,3,92,60,28,30.19,30.05,29.91,10,10,10,16,4,20,0.00,1,,312
2012-12-7,48,28,7,28,12,5,100,66,31,30.09,29.97,29.89,10,6,0,12,4,15,0.00,3,Fog,155
2012-12-8,51,27,2,19,10,-1,86,55,23,30.05,29.88,29.74,10,10,10,28,8,35,0.00,0,,200
2012-12-9,32,5,-22,19,8,-24,92,69,46,30.48,29.96,29.66,10,5,0,21,9,26,0.20,5,Fog-Snow,95
2012-12-10,22,-1,-24,10,-3,-28,91,65,39,30.55,30.19,29.93,10,6,0,13,4,15,0.07,4,Fog-Snow,254
2012-12-11,23,4,-15,8,-7,-20,100,75,50,30.45,30.22,29.97,10,5,0,9,2,13,0.00,3,Fog,255
2012-12-12,27,6,-16,10,-4,-19,95,71,46,30.52,30.42,30.31,10,10,9,10,3,12,0.00,0,,257
2012-12-13,33,9,-16,14,-2,-19,95,68,41,30.57,30.38,30.03,10,10,8,8,2,8,0.00,0,,270
2012-12-14,30,14,-3,24,14,-4,96,90,83,30.17,29.83,29.63,10,4,0,17,4,21,0.20,6,Fog-Snow,256
2012-12-15,33,18,2,21,15,-1,95,76,56,30.13,29.91,29.72,10,8,1,22,7,26,0.04,4,Snow,236
2012-12-16,30,10,-10,18,7,-12,96,73,50,30.24,29.92,29.72,10,6,0,14,4,17,0.01,3,Fog-Snow,185
2012-12-17,25,7,-12,11,-2,-17,95,75,55,30.38,30.18,30.03,10,10,7,14,4,16,0.00,0,,24
2012-12-18,34,13,-9,28,8,-13,91,74,56,30.25,29.91,29.62,10,7,0,23,10,29,0.01,3,Fog-Snow,227
2012-12-19,31,11,-9,29,17,-17,100,74,48,30.41,29.67,29.44,10,6,0,33,14,43,0.08,6,Fog-Snow,202
2012-12-20,15,-4,-24,-5,-17,-26,87,62,36,31.07,30.83,30.48,10,10,10,14,3,18,0.00,0,,267
2012-12-21,13,-7,-27,-2,-17,-30,91,71,50,31.13,30.89,30.73,10,10,9,8,2,9,0.00,0,,282
2012-12-22,17,-2,-22,1,-13,-25,91,72,53,30.81,30.67,30.55,10,10,4,9,2,10,0.00,0,,342
2012-12-23,22,-1,-25,4,-13,-30,92,69,45,30.69,30.49,30.14,10,9,5,9,2,9,0.00,1,,328
2012-12-24,28,8,-12,11,0,-14,88,69,50,30.33,30.08,29.85,10,10,9,12,4,13,0.00,0,,323
2012-12-25,26,9,-9,11,3,-12,96,76,55,30.35,30.13,29.80,10,10,7,10,3,13,0.00,2,,261
2012-12-26,22,5,-12,11,-2,-17,96,77,57,30.30,30.05,29.77,10,9,2,15,4,20,0.00,3,,297
2012-12-27,29,9,-11,12,-2,-15,100,78,55,30.11,29.85,29.64,10,7,0,13,5,15,T,3,Fog,310
2012-12-28,23,2,-20,4,-9,-21,95,68,41,30.58,30.19,29.82,10,9,0,9,3,10,0.00,3,Fog,258
2012-12-29,17,-4,-26,0,-13,-29,91,69,47,30.84,30.60,30.11,10,10,7,9,4,10,0.00,0,,293
2012-12-30,14,-3,-20,3,-7,-24,89,72,55,30.58,30.30,29.86,10,9,1,8,2,8,T,2,Snow,186
2012-12-31,22,11,0,18,11,-1,100,87,74,30.12,29.91,29.76,10,4,0,9,2,10,0.20,8,Fog-Snow,18